Location: Eschentzwiller
(47.7125°N, 7.3981°E)
Time: 01:14:43
(UTC+00:00)

Cosmos 1697 Rocket - Pass Details

Date: 27 October 2020
Orbit: 831 x 845 km, 71.0° (Epoch: 26 November)

Event Time Altitude Azimuth Distance (km) Brightness Sun altitude
Rises 19:22:19 0° 226° (SW) 3,368 6.2 -31.0°
Reaches altitude 10° 19:24:52 10° 233° (SW) 2,439 5.5 -31.4°
Maximum altitude 19:30:12 44° 305° (NW) 1,138 3.6 -32.3°
Enters shadow 19:31:37 37° 343° (NNW) 1,278 3.8 -32.5°
